COSMOS 249 DEB, 19362

Orbit data source: Space-Track

COSMOS 249 DEB, 19362 is space debris in LEO originally from a launch on Sun, 20 Oct 1968 UTC launched from the Tyuratam Missile And Space Complex (TTMTR). Debris objects in space refer to the collection of defunct objects orbiting the Earth. Examples of debris include non-operational satellites, rocket bodies, and fragments generated from explosions, collisions, or faulty payload assembly.

Loading next visibility...
Identifier
19362, 1968-091DJ
Orbit
LEO
Country
Flag of CISCIS
Related business
Manufacturer
Unknown
Mission
Spacecraft
Bus & Motor
Unknown
Mass
Unknown
Launch date (UTC)
1968-10-20 (58 years ago)
Launch vehicle
Unknown
Launch site
Tyuratam Missile And Space Complex (TTMTR)
Object type
Payload
Rocket body
Debris
Shape & HBR
Unknown shape, 0.1 m
Radar Cross Section
Small (<0.1 m²)

Expand to show TLE details & history
Last TLE update: 2 days ago

TLE from 2 days ago
0 COSMOS 249 DEB
1 19362U 68091DJ  26125.31074305  .00019493  00000-0  25490-2 0  9992
2 19362  62.7643  99.4047 0468302  50.9559 313.2217 14.25436332913858
Epoch: 2026-05-05T07:27Z
TLE epoch observation values (Epoch: 2026-05-05T07:27:28.199Z)
Latitude
-0.00001°
Longitude
124.34978°
Altitude
587.131 km
Speed
7.683 km/s
True Right ascension
06h 37m 37s
True Declination
0° 00' 00"
Sunlit
Object was in daylight at epoch
Visualization orbit readout
Latitude
Unknown
Longitude
Unknown
Altitude
Unknown
Speed
Unknown
Apparent Right ascension
Unknown
Apparent Declination
Unknown
Sunlit
N/A
Visualization observer readout
Local Sidereal Time
04:13:26
Azimuth
Unknown
Elevation
Unknown
Doppler factor
Unknown
Orbital elements
Apogee altitude
1,142.317 km
Perigee altitude
469.458 km
Semi-major axis
7,184.025 km
Eccentricity
0.04683
Inclination
62.7643°
RAAN
99.4047°
Arg. of periapsis
50.9559°
True anomaly
309.15161°
Mean anomaly
313.2217°
Eccentric anomaly
311.20293°
Mean motion
3.56444 °/min
Orbital period
101 mins
BSTAR
0.002549
Loading maneuver chart data...
Computing Atmospheric mass density...
Loading historical data...
Loading historical data...
Loading historical data...
Loading historical data...
Loading historical data...
Loading historical data...
Loading historical data...

Documentation

Showing up to 5 results
|